owner,sensor,date,latitude,longitude,air_temperature,qcFlag 
DISL,ioos:station:DISL:DISL:1,2008-02-01T00:00:00Z,30.2513,-88.0778,18.25,1111122 
DISL,ioos:station:DISL:DISL:1,2008-02-01T00:30:00Z,30.2513,-88.0778,18.26,1111122 
DISL,ioos:station:DISL:DISL:1,2008-02-01T01:00:00Z,30.2513,-88.0778,18.69,1111122 
DISL,ioos:station:DISL:DISL:1,2008-02-01T01:30:00Z,30.2513,-88.0778,18.55,1111122 
DISL,ioos:station:DISL:DISL:1,2008-02-01T02:00:00Z,30.2513,-88.0778,18.47,1111122 
DISL,ioos:station:DISL:DISL:1,2008-02-01T02:30:00Z,30.2513,-88.0778,16.15,1111122 
DISL,ioos:station:DISL:DISL:1,2008-02-01T03:00:00Z,30.2513,-88.0778,15.99,1111122 
DISL,ioos:station:DISL:DISL:1,2008-02-01T03:30:00Z,30.2513,-88.0778,15.54,1111122 
DISL,ioos:station:DISL:DISL:1,2008-02-01T04:00:00Z,30.2513,-88.0778,15.45,1111122 
DISL,ioos:station:DISL:DISL:1,2008-02-01T04:30:00Z,30.2513,-88.0778,15.49,1111122 
DISL,ioos:station:DISL:DISL:1,2008-02-01T05:00:00Z,30.2513,-88.0778,15.13,1111122 
DISL,ioos:station:DISL:DISL:1,2008-02-01T05:30:00Z,30.2513,-88.0778,14.66,1111122 
DISL,ioos:station:DISL:DISL:1,2008-02-01T06:00:00Z,30.2513,-88.0778,14.13,1111122 
DISL,ioos:station:DISL:DISL:1,2008-02-01T06:30:00Z,30.2513,-88.0778,13.65,1111122 
DISL,ioos:station:DISL:DISL:1,2008-02-01T07:00:00Z,30.2513,-88.0778,13.12,1111122 
DISL,ioos:station:DISL:DISL:1,2008-02-01T07:30:00Z,30.2513,-88.0778,12.73,1111122 
DISL,ioos:station:DISL:DISL:1,2008-02-01T08:00:00Z,30.2513,-88.0778,12.28,1111122 
DISL,ioos:station:DISL:DISL:1,2008-02-01T08:30:00Z,30.2513,-88.0778,12.03,1111122 
DISL,ioos:station:DISL:DISL:1,2008-02-01T09:00:00Z,30.2513,-88.0778,11.44,1111122 
DISL,ioos:station:DISL:DISL:1,2008-02-01T09:30:00Z,30.2513,-88.0778,10.65,1111122 
DISL,ioos:station:DISL:DISL:1,2008-02-01T10:00:00Z,30.2513,-88.0778,10.26,1111122 
DISL,ioos:station:DISL:DISL:1,2008-02-01T10:30:00Z,30.2513,-88.0778,9.54,1111122 
DISL,ioos:station:DISL:DISL:1,2008-02-01T11:00:00Z,30.2513,-88.0778,9.0,1111122 
DISL,ioos:station:DISL:DISL:1,2008-02-01T11:30:00Z,30.2513,-88.0778,8.28,1111122 
DISL,ioos:station:DISL:DISL:1,2008-02-01T12:00:00Z,30.2513,-88.0778,7.69,1111122 
DISL,ioos:station:DISL:DISL:1,2008-02-01T12:30:00Z,30.2513,-88.0778,7.03,1111122 
DISL,ioos:station:DISL:DISL:1,2008-02-01T13:00:00Z,30.2513,-88.0778,6.7,1111122 
DISL,ioos:station:DISL:DISL:1,2008-02-01T13:30:00Z,30.2513,-88.0778,6.374,1111122 
DISL,ioos:station:DISL:DISL:1,2008-02-01T14:00:00Z,30.2513,-88.0778,5.971,1111122 
DISL,ioos:station:DISL:DISL:1,2008-02-01T14:30:00Z,30.2513,-88.0778,5.866,1111122 
DISL,ioos:station:DISL:DISL:1,2008-02-01T15:00:00Z,30.2513,-88.0778,6.316,1111122 
DISL,ioos:station:DISL:DISL:1,2008-02-01T15:30:00Z,30.2513,-88.0778,6.529,1111122 
DISL,ioos:station:DISL:DISL:1,2008-02-01T16:00:00Z,30.2513,-88.0778,6.856,1111122 
DISL,ioos:station:DISL:DISL:1,2008-02-01T16:30:00Z,30.2513,-88.0778,7.2,1111122 
DISL,ioos:station:DISL:DISL:1,2008-02-01T17:00:00Z,30.2513,-88.0778,7.42,1111122 
DISL,ioos:station:DISL:DISL:1,2008-02-01T17:30:00Z,30.2513,-88.0778,7.36,1111122 
DISL,ioos:station:DISL:DISL:1,2008-02-01T18:00:00Z,30.2513,-88.0778,7.67,1111122 
DISL,ioos:station:DISL:DISL:1,2008-02-01T18:30:00Z,30.2513,-88.0778,8.02,1111122 
DISL,ioos:station:DISL:DISL:1,2008-02-01T19:00:00Z,30.2513,-88.0778,7.99,1111122 
DISL,ioos:station:DISL:DISL:1,2008-02-01T19:30:00Z,30.2513,-88.0778,8.71,1111122 
DISL,ioos:station:DISL:DISL:1,2008-02-01T20:00:00Z,30.2513,-88.0778,8.58,1111122 
DISL,ioos:station:DISL:DISL:1,2008-02-01T20:30:00Z,30.2513,-88.0778,8.65,1111122 
DISL,ioos:station:DISL:DISL:1,2008-02-01T21:00:00Z,30.2513,-88.0778,9.17,1111122 
DISL,ioos:station:DISL:DISL:1,2008-02-01T21:30:00Z,30.2513,-88.0778,9.71,1111122 
DISL,ioos:station:DISL:DISL:1,2008-02-01T22:00:00Z,30.2513,-88.0778,10.04,1111122 
DISL,ioos:station:DISL:DISL:1,2008-02-01T22:30:00Z,30.2513,-88.0778,9.71,1111122 
DISL,ioos:station:DISL:DISL:1,2008-02-01T23:00:00Z,30.2513,-88.0778,9.64,1111122 
DISL,ioos:station:DISL:DISL:1,2008-02-01T23:30:00Z,30.2513,-88.0778,9.49,1111122 
DISL,ioos:station:DISL:DISL:1,2008-02-02T00:00:00Z,30.2513,-88.0778,8.98,1111122 
DISL,ioos:station:DISL:DISL:1,2008-02-02T00:30:00Z,30.2513,-88.0778,8.84,1111122 
DISL,ioos:station:DISL:DISL:1,2008-02-02T01:00:00Z,30.2513,-88.0778,9.28,1111122 
DISL,ioos:station:DISL:DISL:1,2008-02-02T01:30:00Z,30.2513,-88.0778,9.16,1111122 
DISL,ioos:station:DISL:DISL:1,2008-02-02T02:00:00Z,30.2513,-88.0778,9.0,1111122 
DISL,ioos:station:DISL:DISL:1,2008-02-02T02:30:00Z,30.2513,-88.0778,9.37,1111122 
DISL,ioos:station:DISL:DISL:1,2008-02-02T03:00:00Z,30.2513,-88.0778,10.5,1111122 
DISL,ioos:station:DISL:DISL:1,2008-02-02T03:30:00Z,30.2513,-88.0778,11.18,1111122 
DISL,ioos:station:DISL:DISL:1,2008-02-02T04:00:00Z,30.2513,-88.0778,11.2,1111122 
DISL,ioos:station:DISL:DISL:1,2008-02-02T04:30:00Z,30.2513,-88.0778,11.08,1111122 
DISL,ioos:station:DISL:DISL:1,2008-02-02T05:00:00Z,30.2513,-88.0778,11.01,1111122 
DISL,ioos:station:DISL:DISL:1,2008-02-02T05:30:00Z,30.2513,-88.0778,11.16,1111122 
DISL,ioos:station:DISL:DISL:1,2008-02-02T06:00:00Z,30.2513,-88.0778,11.08,1111122 
DISL,ioos:station:DISL:DISL:1,2008-02-02T06:30:00Z,30.2513,-88.0778,11.05,1111122 
DISL,ioos:station:DISL:DISL:1,2008-02-02T07:00:00Z,30.2513,-88.0778,11.01,1111122 
DISL,ioos:station:DISL:DISL:1,2008-02-02T07:30:00Z,30.2513,-88.0778,10.94,1111122 
DISL,ioos:station:DISL:DISL:1,2008-02-02T08:00:00Z,30.2513,-88.0778,10.8,1111122 
DISL,ioos:station:DISL:DISL:1,2008-02-02T08:30:00Z,30.2513,-88.0778,10.79,1111122 
DISL,ioos:station:DISL:DISL:1,2008-02-02T09:00:00Z,30.2513,-88.0778,10.86,1111122 
DISL,ioos:station:DISL:DISL:1,2008-02-02T09:30:00Z,30.2513,-88.0778,10.56,1111122 
DISL,ioos:station:DISL:DISL:1,2008-02-02T10:00:00Z,30.2513,-88.0778,10.26,1111122 
DISL,ioos:station:DISL:DISL:1,2008-02-02T10:30:00Z,30.2513,-88.0778,9.94,1111122 
DISL,ioos:station:DISL:DISL:1,2008-02-02T11:00:00Z,30.2513,-88.0778,9.6,1111122 
DISL,ioos:station:DISL:DISL:1,2008-02-02T11:30:00Z,30.2513,-88.0778,9.46,1111122 
DISL,ioos:station:DISL:DISL:1,2008-02-02T12:00:00Z,30.2513,-88.0778,9.17,1111122 
DISL,ioos:station:DISL:DISL:1,2008-02-02T12:30:00Z,30.2513,-88.0778,9.22,1111122 
DISL,ioos:station:DISL:DISL:1,2008-02-02T13:00:00Z,30.2513,-88.0778,9.24,1111122 
DISL,ioos:station:DISL:DISL:1,2008-02-02T13:30:00Z,30.2513,-88.0778,9.31,1111122 
DISL,ioos:station:DISL:DISL:1,2008-02-02T14:00:00Z,30.2513,-88.0778,9.68,1111122 
DISL,ioos:station:DISL:DISL:1,2008-02-02T14:30:00Z,30.2513,-88.0778,9.81,1111122 
DISL,ioos:station:DISL:DISL:1,2008-02-02T15:00:00Z,30.2513,-88.0778,9.89,1111122 
DISL,ioos:station:DISL:DISL:1,2008-02-02T15:30:00Z,30.2513,-88.0778,10.12,1111122 
DISL,ioos:station:DISL:DISL:1,2008-02-02T16:00:00Z,30.2513,-88.0778,10.57,1111122 
DISL,ioos:station:DISL:DISL:1,2008-02-02T16:30:00Z,30.2513,-88.0778,11.12,1111122 
DISL,ioos:station:DISL:DISL:1,2008-02-02T17:00:00Z,30.2513,-88.0778,11.72,1111122 
DISL,ioos:station:DISL:DISL:1,2008-02-02T17:30:00Z,30.2513,-88.0778,12.57,1111122 
DISL,ioos:station:DISL:DISL:1,2008-02-02T18:00:00Z,30.2513,-88.0778,13.15,1111122 
DISL,ioos:station:DISL:DISL:1,2008-02-02T18:30:00Z,30.2513,-88.0778,13.73,1111122 
DISL,ioos:station:DISL:DISL:1,2008-02-02T19:00:00Z,30.2513,-88.0778,13.68,1111122 
DISL,ioos:station:DISL:DISL:1,2008-02-02T19:30:00Z,30.2513,-88.0778,13.85,1111122 
DISL,ioos:station:DISL:DISL:1,2008-02-02T20:00:00Z,30.2513,-88.0778,14.35,1111122 
DISL,ioos:station:DISL:DISL:1,2008-02-02T20:30:00Z,30.2513,-88.0778,14.79,1111122 
DISL,ioos:station:DISL:DISL:1,2008-02-02T21:00:00Z,30.2513,-88.0778,14.5,1111122 
DISL,ioos:station:DISL:DISL:1,2008-02-02T21:30:00Z,30.2513,-88.0778,14.81,1111122 
DISL,ioos:station:DISL:DISL:1,2008-02-02T22:00:00Z,30.2513,-88.0778,15.07,1111122 
DISL,ioos:station:DISL:DISL:1,2008-02-02T22:30:00Z,30.2513,-88.0778,15.05,1111122 
DISL,ioos:station:DISL:DISL:1,2008-02-02T23:00:00Z,30.2513,-88.0778,14.91,1111122 
DISL,ioos:station:DISL:DISL:1,2008-02-02T23:30:00Z,30.2513,-88.0778,14.61,1111122 
DISL,ioos:station:DISL:DISL:1,2008-02-03T00:00:00Z,30.2513,-88.0778,14.42,1111122 
DISL,ioos:station:DISL:DISL:1,2008-02-03T00:30:00Z,30.2513,-88.0778,14.42,1111122 
DISL,ioos:station:DISL:DISL:1,2008-02-03T01:00:00Z,30.2513,-88.0778,14.3,1111122 
DISL,ioos:station:DISL:DISL:1,2008-02-03T01:30:00Z,30.2513,-88.0778,14.01,1111122 
DISL,ioos:station:DISL:DISL:1,2008-02-03T02:00:00Z,30.2513,-88.0778,13.5,1111122 
DISL,ioos:station:DISL:DISL:1,2008-02-03T02:30:00Z,30.2513,-88.0778,13.23,1111122 
DISL,ioos:station:DISL:DISL:1,2008-02-03T03:00:00Z,30.2513,-88.0778,12.99,1111122 
DISL,ioos:station:DISL:DISL:1,2008-02-03T03:30:00Z,30.2513,-88.0778,12.85,1111122 
DISL,ioos:station:DISL:DISL:1,2008-02-03T04:00:00Z,30.2513,-88.0778,12.74,1111122 
DISL,ioos:station:DISL:DISL:1,2008-02-03T04:30:00Z,30.2513,-88.0778,12.76,1111122 
DISL,ioos:station:DISL:DISL:1,2008-02-03T05:00:00Z,30.2513,-88.0778,12.64,1111122 
DISL,ioos:station:DISL:DISL:1,2008-02-03T05:30:00Z,30.2513,-88.0778,12.48,1111122 
DISL,ioos:station:DISL:DISL:1,2008-02-03T06:00:00Z,30.2513,-88.0778,12.6,1111122 
DISL,ioos:station:DISL:DISL:1,2008-02-03T06:30:00Z,30.2513,-88.0778,12.6,1111122 
DISL,ioos:station:DISL:DISL:1,2008-02-03T07:00:00Z,30.2513,-88.0778,12.65,1111122 
DISL,ioos:station:DISL:DISL:1,2008-02-03T07:30:00Z,30.2513,-88.0778,12.77,1111122 
DISL,ioos:station:DISL:DISL:1,2008-02-03T08:00:00Z,30.2513,-88.0778,12.79,1111122 
DISL,ioos:station:DISL:DISL:1,2008-02-03T08:30:00Z,30.2513,-88.0778,13.11,1111122 
DISL,ioos:station:DISL:DISL:1,2008-02-03T09:00:00Z,30.2513,-88.0778,13.14,1111122 
DISL,ioos:station:DISL:DISL:1,2008-02-03T09:30:00Z,30.2513,-88.0778,13.03,1111122 
DISL,ioos:station:DISL:DISL:1,2008-02-03T10:00:00Z,30.2513,-88.0778,12.96,1111122 
DISL,ioos:station:DISL:DISL:1,2008-02-03T10:30:00Z,30.2513,-88.0778,13.41,1111122 
DISL,ioos:station:DISL:DISL:1,2008-02-03T11:00:00Z,30.2513,-88.0778,13.76,1111122 
DISL,ioos:station:DISL:DISL:1,2008-02-03T11:30:00Z,30.2513,-88.0778,14.36,1111122 
DISL,ioos:station:DISL:DISL:1,2008-02-03T12:00:00Z,30.2513,-88.0778,13.98,1111122 
DISL,ioos:station:DISL:DISL:1,2008-02-03T12:30:00Z,30.2513,-88.0778,13.98,1111122 
DISL,ioos:station:DISL:DISL:1,2008-02-03T13:00:00Z,30.2513,-88.0778,13.51,1111122 
DISL,ioos:station:DISL:DISL:1,2008-02-03T13:30:00Z,30.2513,-88.0778,14.75,1111122 
DISL,ioos:station:DISL:DISL:1,2008-02-03T14:00:00Z,30.2513,-88.0778,14.36,1111122 
DISL,ioos:station:DISL:DISL:1,2008-02-03T14:30:00Z,30.2513,-88.0778,14.56,1111122 
DISL,ioos:station:DISL:DISL:1,2008-02-03T15:00:00Z,30.2513,-88.0778,14.91,1111122 
DISL,ioos:station:DISL:DISL:1,2008-02-03T15:30:00Z,30.2513,-88.0778,16.05,1111122 
DISL,ioos:station:DISL:DISL:1,2008-02-03T16:00:00Z,30.2513,-88.0778,16.32,1111122 
DISL,ioos:station:DISL:DISL:1,2008-02-03T16:30:00Z,30.2513,-88.0778,17.34,1111122 
DISL,ioos:station:DISL:DISL:1,2008-02-03T17:00:00Z,30.2513,-88.0778,17.15,1111122 
DISL,ioos:station:DISL:DISL:1,2008-02-03T17:30:00Z,30.2513,-88.0778,17.4,1111122 
DISL,ioos:station:DISL:DISL:1,2008-02-03T18:00:00Z,30.2513,-88.0778,17.57,1111122 
DISL,ioos:station:DISL:DISL:1,2008-02-03T18:30:00Z,30.2513,-88.0778,17.7,1111122 
DISL,ioos:station:DISL:DISL:1,2008-02-03T19:00:00Z,30.2513,-88.0778,17.42,1111122 
DISL,ioos:station:DISL:DISL:1,2008-02-03T19:30:00Z,30.2513,-88.0778,17.5,1111122 
DISL,ioos:station:DISL:DISL:1,2008-02-03T20:00:00Z,30.2513,-88.0778,17.59,1111122 
DISL,ioos:station:DISL:DISL:1,2008-02-03T20:30:00Z,30.2513,-88.0778,17.7,1111122 
DISL,ioos:station:DISL:DISL:1,2008-02-03T21:00:00Z,30.2513,-88.0778,18.03,1111122 
DISL,ioos:station:DISL:DISL:1,2008-02-03T21:30:00Z,30.2513,-88.0778,18.37,1111122 
DISL,ioos:station:DISL:DISL:1,2008-02-03T22:00:00Z,30.2513,-88.0778,18.25,1111122 
DISL,ioos:station:DISL:DISL:1,2008-02-03T22:30:00Z,30.2513,-88.0778,17.96,1111122 
DISL,ioos:station:DISL:DISL:1,2008-02-03T23:00:00Z,30.2513,-88.0778,17.36,1111122 
DISL,ioos:station:DISL:DISL:1,2008-02-03T23:30:00Z,30.2513,-88.0778,16.88,1111122 
DISL,ioos:station:DISL:DISL:1,2008-02-04T00:00:00Z,30.2513,-88.0778,16.97,1111122 
DISL,ioos:station:DISL:DISL:1,2008-02-04T00:30:00Z,30.2513,-88.0778,17.12,1111122 
DISL,ioos:station:DISL:DISL:1,2008-02-04T01:00:00Z,30.2513,-88.0778,17.11,1111122 
DISL,ioos:station:DISL:DISL:1,2008-02-04T01:30:00Z,30.2513,-88.0778,17.04,1111122 
DISL,ioos:station:DISL:DISL:1,2008-02-04T02:00:00Z,30.2513,-88.0778,16.94,1111122 
DISL,ioos:station:DISL:DISL:1,2008-02-04T02:30:00Z,30.2513,-88.0778,16.87,1111122 
DISL,ioos:station:DISL:DISL:1,2008-02-04T03:00:00Z,30.2513,-88.0778,16.94,1111122 
DISL,ioos:station:DISL:DISL:1,2008-02-04T03:30:00Z,30.2513,-88.0778,16.72,1111122 
DISL,ioos:station:DISL:DISL:1,2008-02-04T04:00:00Z,30.2513,-88.0778,16.78,1111122 
DISL,ioos:station:DISL:DISL:1,2008-02-04T04:30:00Z,30.2513,-88.0778,16.7,1111122 
DISL,ioos:station:DISL:DISL:1,2008-02-04T05:00:00Z,30.2513,-88.0778,16.65,1111122 
DISL,ioos:station:DISL:DISL:1,2008-02-04T05:30:00Z,30.2513,-88.0778,16.53,1111122 
DISL,ioos:station:DISL:DISL:1,2008-02-04T06:00:00Z,30.2513,-88.0778,16.8,1111122 
DISL,ioos:station:DISL:DISL:1,2008-02-04T06:30:00Z,30.2513,-88.0778,16.7,1111122 
DISL,ioos:station:DISL:DISL:1,2008-02-04T07:00:00Z,30.2513,-88.0778,16.77,1111122 
DISL,ioos:station:DISL:DISL:1,2008-02-04T07:30:00Z,30.2513,-88.0778,16.9,1111122 
DISL,ioos:station:DISL:DISL:1,2008-02-04T08:00:00Z,30.2513,-88.0778,17.09,1111122 
DISL,ioos:station:DISL:DISL:1,2008-02-04T08:30:00Z,30.2513,-88.0778,17.13,1111122 
DISL,ioos:station:DISL:DISL:1,2008-02-04T09:00:00Z,30.2513,-88.0778,16.86,1111122 
DISL,ioos:station:DISL:DISL:1,2008-02-04T09:30:00Z,30.2513,-88.0778,16.67,1111122 
DISL,ioos:station:DISL:DISL:1,2008-02-04T10:00:00Z,30.2513,-88.0778,16.71,1111122 
DISL,ioos:station:DISL:DISL:1,2008-02-04T10:30:00Z,30.2513,-88.0778,16.56,1111122 
DISL,ioos:station:DISL:DISL:1,2008-02-04T11:00:00Z,30.2513,-88.0778,16.46,1111122 
DISL,ioos:station:DISL:DISL:1,2008-02-04T11:30:00Z,30.2513,-88.0778,16.62,1111122 
DISL,ioos:station:DISL:DISL:1,2008-02-04T12:00:00Z,30.2513,-88.0778,16.34,1111122 
DISL,ioos:station:DISL:DISL:1,2008-02-04T12:30:00Z,30.2513,-88.0778,16.27,1111122 
DISL,ioos:station:DISL:DISL:1,2008-02-04T13:00:00Z,30.2513,-88.0778,16.46,1111122 
DISL,ioos:station:DISL:DISL:1,2008-02-04T13:30:00Z,30.2513,-88.0778,16.94,1111122 
DISL,ioos:station:DISL:DISL:1,2008-02-04T14:00:00Z,30.2513,-88.0778,17.26,1111122 
DISL,ioos:station:DISL:DISL:1,2008-02-04T14:30:00Z,30.2513,-88.0778,17.6,1111122 
DISL,ioos:station:DISL:DISL:1,2008-02-04T15:00:00Z,30.2513,-88.0778,17.95,1111122 
DISL,ioos:station:DISL:DISL:1,2008-02-04T15:30:00Z,30.2513,-88.0778,18.18,1111122 
DISL,ioos:station:DISL:DISL:1,2008-02-04T16:00:00Z,30.2513,-88.0778,18.32,1111122 
DISL,ioos:station:DISL:DISL:1,2008-02-04T16:30:00Z,30.2513,-88.0778,18.94,1111122 
DISL,ioos:station:DISL:DISL:1,2008-02-04T17:00:00Z,30.2513,-88.0778,19.12,1111122 
DISL,ioos:station:DISL:DISL:1,2008-02-04T17:30:00Z,30.2513,-88.0778,19.35,1111122 
DISL,ioos:station:DISL:DISL:1,2008-02-04T18:00:00Z,30.2513,-88.0778,18.72,1111122 
DISL,ioos:station:DISL:DISL:1,2008-02-04T18:30:00Z,30.2513,-88.0778,18.71,1111122 
DISL,ioos:station:DISL:DISL:1,2008-02-04T19:00:00Z,30.2513,-88.0778,18.62,1111122 
DISL,ioos:station:DISL:DISL:1,2008-02-04T19:30:00Z,30.2513,-88.0778,18.73,1111122 
DISL,ioos:station:DISL:DISL:1,2008-02-04T20:00:00Z,30.2513,-88.0778,18.42,1111122 
DISL,ioos:station:DISL:DISL:1,2008-02-04T20:30:00Z,30.2513,-88.0778,18.47,1111122 
DISL,ioos:station:DISL:DISL:1,2008-02-04T21:00:00Z,30.2513,-88.0778,18.4,1111122 
DISL,ioos:station:DISL:DISL:1,2008-02-04T21:30:00Z,30.2513,-88.0778,18.12,1111122 
DISL,ioos:station:DISL:DISL:1,2008-02-04T22:00:00Z,30.2513,-88.0778,18.42,1111122 
DISL,ioos:station:DISL:DISL:1,2008-02-04T22:30:00Z,30.2513,-88.0778,18.29,1111122 
DISL,ioos:station:DISL:DISL:1,2008-02-04T23:00:00Z,30.2513,-88.0778,17.83,1111122 
DISL,ioos:station:DISL:DISL:1,2008-02-04T23:30:00Z,30.2513,-88.0778,17.92,1111122 
DISL,ioos:station:DISL:DISL:1,2008-02-05T00:00:00Z,30.2513,-88.0778,18.68,1111122 
DISL,ioos:station:DISL:DISL:1,2008-02-05T00:30:00Z,30.2513,-88.0778,17.86,1111122 
DISL,ioos:station:DISL:DISL:1,2008-02-05T01:00:00Z,30.2513,-88.0778,17.93,1111122 
DISL,ioos:station:DISL:DISL:1,2008-02-05T01:30:00Z,30.2513,-88.0778,18.1,1111122 
DISL,ioos:station:DISL:DISL:1,2008-02-05T02:00:00Z,30.2513,-88.0778,17.98,1111122 
DISL,ioos:station:DISL:DISL:1,2008-02-05T02:30:00Z,30.2513,-88.0778,18.05,1111122 
DISL,ioos:station:DISL:DISL:1,2008-02-05T03:00:00Z,30.2513,-88.0778,18.06,1111122 
DISL,ioos:station:DISL:DISL:1,2008-02-05T03:30:00Z,30.2513,-88.0778,18.24,1111122 
DISL,ioos:station:DISL:DISL:1,2008-02-05T04:00:00Z,30.2513,-88.0778,18.21,1111122 
DISL,ioos:station:DISL:DISL:1,2008-02-05T04:30:00Z,30.2513,-88.0778,18.43,1111122 
DISL,ioos:station:DISL:DISL:1,2008-02-05T05:00:00Z,30.2513,-88.0778,18.42,1111122 
DISL,ioos:station:DISL:DISL:1,2008-02-05T05:30:00Z,30.2513,-88.0778,18.22,1111122 
DISL,ioos:station:DISL:DISL:1,2008-02-05T06:00:00Z,30.2513,-88.0778,18.25,1111122 
DISL,ioos:station:DISL:DISL:1,2008-02-05T06:30:00Z,30.2513,-88.0778,18.13,1111122 
DISL,ioos:station:DISL:DISL:1,2008-02-05T07:00:00Z,30.2513,-88.0778,18.23,1111122 
DISL,ioos:station:DISL:DISL:1,2008-02-05T07:30:00Z,30.2513,-88.0778,18.22,1111122 
DISL,ioos:station:DISL:DISL:1,2008-02-05T08:00:00Z,30.2513,-88.0778,18.58,1111122 
DISL,ioos:station:DISL:DISL:1,2008-02-05T08:30:00Z,30.2513,-88.0778,18.28,1111122 
DISL,ioos:station:DISL:DISL:1,2008-02-05T09:00:00Z,30.2513,-88.0778,18.45,1111122 
DISL,ioos:station:DISL:DISL:1,2008-02-05T09:30:00Z,30.2513,-88.0778,18.3,1111122 
DISL,ioos:station:DISL:DISL:1,2008-02-05T10:00:00Z,30.2513,-88.0778,18.37,1111122 
DISL,ioos:station:DISL:DISL:1,2008-02-05T10:30:00Z,30.2513,-88.0778,18.53,1111122 
DISL,ioos:station:DISL:DISL:1,2008-02-05T11:00:00Z,30.2513,-88.0778,18.49,1111122 
DISL,ioos:station:DISL:DISL:1,2008-02-05T11:30:00Z,30.2513,-88.0778,18.28,1111122 
DISL,ioos:station:DISL:DISL:1,2008-02-05T12:00:00Z,30.2513,-88.0778,18.38,1111122 
DISL,ioos:station:DISL:DISL:1,2008-02-05T12:30:00Z,30.2513,-88.0778,18.34,1111122 
DISL,ioos:station:DISL:DISL:1,2008-02-05T13:00:00Z,30.2513,-88.0778,18.5,1111122 
DISL,ioos:station:DISL:DISL:1,2008-02-05T13:30:00Z,30.2513,-88.0778,18.45,1111122 
DISL,ioos:station:DISL:DISL:1,2008-02-05T14:00:00Z,30.2513,-88.0778,18.66,1111122 
DISL,ioos:station:DISL:DISL:1,2008-02-05T14:30:00Z,30.2513,-88.0778,18.81,1111122 
DISL,ioos:station:DISL:DISL:1,2008-02-05T15:00:00Z,30.2513,-88.0778,18.98,1111122 
DISL,ioos:station:DISL:DISL:1,2008-02-05T15:30:00Z,30.2513,-88.0778,18.72,1111122 
DISL,ioos:station:DISL:DISL:1,2008-02-05T16:00:00Z,30.2513,-88.0778,18.64,1111122 
DISL,ioos:station:DISL:DISL:1,2008-02-05T16:30:00Z,30.2513,-88.0778,18.85,1111122 
DISL,ioos:station:DISL:DISL:1,2008-02-05T17:00:00Z,30.2513,-88.0778,19.27,1111122 
DISL,ioos:station:DISL:DISL:1,2008-02-05T17:30:00Z,30.2513,-88.0778,19.38,1111122 
DISL,ioos:station:DISL:DISL:1,2008-02-05T18:00:00Z,30.2513,-88.0778,19.74,1111122 
DISL,ioos:station:DISL:DISL:1,2008-02-05T18:30:00Z,30.2513,-88.0778,19.61,1111122 
DISL,ioos:station:DISL:DISL:1,2008-02-05T19:00:00Z,30.2513,-88.0778,19.82,1111122 
DISL,ioos:station:DISL:DISL:1,2008-02-05T19:30:00Z,30.2513,-88.0778,19.76,1111122 
DISL,ioos:station:DISL:DISL:1,2008-02-05T20:00:00Z,30.2513,-88.0778,19.84,1111122 
DISL,ioos:station:DISL:DISL:1,2008-02-05T20:30:00Z,30.2513,-88.0778,20.02,1111122 
DISL,ioos:station:DISL:DISL:1,2008-02-05T21:00:00Z,30.2513,-88.0778,19.85,1111122 
DISL,ioos:station:DISL:DISL:1,2008-02-05T21:30:00Z,30.2513,-88.0778,19.76,1111122 
DISL,ioos:station:DISL:DISL:1,2008-02-05T22:00:00Z,30.2513,-88.0778,19.75,1111122 
DISL,ioos:station:DISL:DISL:1,2008-02-05T22:30:00Z,30.2513,-88.0778,19.56,1111122 
DISL,ioos:station:DISL:DISL:1,2008-02-05T23:00:00Z,30.2513,-88.0778,19.5,1111122 
DISL,ioos:station:DISL:DISL:1,2008-02-05T23:30:00Z,30.2513,-88.0778,19.37,1111122 
DISL,ioos:station:DISL:DISL:1,2008-02-06T00:00:00Z,30.2513,-88.0778,19.25,1111122 
DISL,ioos:station:DISL:DISL:1,2008-02-06T00:30:00Z,30.2513,-88.0778,19.21,1111122 
DISL,ioos:station:DISL:DISL:1,2008-02-06T01:00:00Z,30.2513,-88.0778,19.26,1111122 
DISL,ioos:station:DISL:DISL:1,2008-02-06T01:30:00Z,30.2513,-88.0778,19.15,1111122 
DISL,ioos:station:DISL:DISL:1,2008-02-06T02:00:00Z,30.2513,-88.0778,19.29,1111122 
DISL,ioos:station:DISL:DISL:1,2008-02-06T02:30:00Z,30.2513,-88.0778,19.33,1111122 
DISL,ioos:station:DISL:DISL:1,2008-02-06T03:00:00Z,30.2513,-88.0778,19.37,1111122 
DISL,ioos:station:DISL:DISL:1,2008-02-06T03:30:00Z,30.2513,-88.0778,19.38,1111122 
DISL,ioos:station:DISL:DISL:1,2008-02-06T04:00:00Z,30.2513,-88.0778,19.33,1111122 
DISL,ioos:station:DISL:DISL:1,2008-02-06T04:30:00Z,30.2513,-88.0778,19.36,1111122 
DISL,ioos:station:DISL:DISL:1,2008-02-06T05:00:00Z,30.2513,-88.0778,19.33,1111122 
DISL,ioos:station:DISL:DISL:1,2008-02-06T05:30:00Z,30.2513,-88.0778,19.45,1111122 
DISL,ioos:station:DISL:DISL:1,2008-02-06T06:00:00Z,30.2513,-88.0778,19.66,1111122 
DISL,ioos:station:DISL:DISL:1,2008-02-06T06:30:00Z,30.2513,-88.0778,19.61,1111122 
DISL,ioos:station:DISL:DISL:1,2008-02-06T07:00:00Z,30.2513,-88.0778,19.56,1111122 
DISL,ioos:station:DISL:DISL:1,2008-02-06T07:30:00Z,30.2513,-88.0778,19.44,1111122 
DISL,ioos:station:DISL:DISL:1,2008-02-06T08:00:00Z,30.2513,-88.0778,19.27,1111122 
DISL,ioos:station:DISL:DISL:1,2008-02-06T08:30:00Z,30.2513,-88.0778,19.3,1111122 
DISL,ioos:station:DISL:DISL:1,2008-02-06T09:00:00Z,30.2513,-88.0778,19.39,1111122 
DISL,ioos:station:DISL:DISL:1,2008-02-06T09:30:00Z,30.2513,-88.0778,19.45,1111122 
DISL,ioos:station:DISL:DISL:1,2008-02-06T10:00:00Z,30.2513,-88.0778,19.52,1111122 
DISL,ioos:station:DISL:DISL:1,2008-02-06T10:30:00Z,30.2513,-88.0778,19.74,1111122 
DISL,ioos:station:DISL:DISL:1,2008-02-06T11:00:00Z,30.2513,-88.0778,19.72,1111122 
DISL,ioos:station:DISL:DISL:1,2008-02-06T11:30:00Z,30.2513,-88.0778,19.88,1111122 
DISL,ioos:station:DISL:DISL:1,2008-02-06T12:00:00Z,30.2513,-88.0778,19.81,1111122 
DISL,ioos:station:DISL:DISL:1,2008-02-06T12:30:00Z,30.2513,-88.0778,19.66,1111122 
DISL,ioos:station:DISL:DISL:1,2008-02-06T13:00:00Z,30.2513,-88.0778,19.91,1111122 
DISL,ioos:station:DISL:DISL:1,2008-02-06T13:30:00Z,30.2513,-88.0778,19.29,1111122 
DISL,ioos:station:DISL:DISL:1,2008-02-06T14:00:00Z,30.2513,-88.0778,18.66,1111122 
DISL,ioos:station:DISL:DISL:1,2008-02-06T14:30:00Z,30.2513,-88.0778,16.94,1111122 
DISL,ioos:station:DISL:DISL:1,2008-02-06T15:00:00Z,30.2513,-88.0778,16.49,1111122 
DISL,ioos:station:DISL:DISL:1,2008-02-06T15:30:00Z,30.2513,-88.0778,16.15,1111122 
DISL,ioos:station:DISL:DISL:1,2008-02-06T16:00:00Z,30.2513,-88.0778,16.12,1111122 
DISL,ioos:station:DISL:DISL:1,2008-02-06T16:30:00Z,30.2513,-88.0778,16.41,1111122 
DISL,ioos:station:DISL:DISL:1,2008-02-06T17:00:00Z,30.2513,-88.0778,16.63,1111122 
DISL,ioos:station:DISL:DISL:1,2008-02-06T17:30:00Z,30.2513,-88.0778,16.86,1111122 
DISL,ioos:station:DISL:DISL:1,2008-02-06T18:00:00Z,30.2513,-88.0778,17.85,1111122 
DISL,ioos:station:DISL:DISL:1,2008-02-06T18:30:00Z,30.2513,-88.0778,17.97,1111122 
DISL,ioos:station:DISL:DISL:1,2008-02-06T19:00:00Z,30.2513,-88.0778,18.3,1111122 
DISL,ioos:station:DISL:DISL:1,2008-02-06T19:30:00Z,30.2513,-88.0778,18.04,1111122 
DISL,ioos:station:DISL:DISL:1,2008-02-06T20:00:00Z,30.2513,-88.0778,17.75,1111122 
DISL,ioos:station:DISL:DISL:1,2008-02-06T20:30:00Z,30.2513,-88.0778,17.83,1111122 
DISL,ioos:station:DISL:DISL:1,2008-02-06T21:00:00Z,30.2513,-88.0778,17.62,1111122 
DISL,ioos:station:DISL:DISL:1,2008-02-06T21:30:00Z,30.2513,-88.0778,17.64,1111122 
DISL,ioos:station:DISL:DISL:1,2008-02-06T22:00:00Z,30.2513,-88.0778,17.34,1111122 
DISL,ioos:station:DISL:DISL:1,2008-02-06T22:30:00Z,30.2513,-88.0778,17.11,1111122 
DISL,ioos:station:DISL:DISL:1,2008-02-06T23:00:00Z,30.2513,-88.0778,16.86,1111122 
DISL,ioos:station:DISL:DISL:1,2008-02-06T23:30:00Z,30.2513,-88.0778,16.68,1111122 
DISL,ioos:station:DISL:DISL:1,2008-02-07T00:00:00Z,30.2513,-88.0778,16.74,1111122 